Tracking 25693 objects as of 1-Jul-2022
HD Live streaming from Space Station
objects crossing your sky now

DMSP 5D-2 F13 DEB

Track DMSP 5D-2 F13 DEB now!
10-day predictions


NORAD ID: 40492
Int'l Code: 1995-015CF
Perigee: 791.6 km
Apogee: 833.0 km
Inclination: 98.7 °
Period: 101.0 minutes
Semi major axis: 7183 km
RCS: Unknown
Launch date: March 24, 1995
Source: United States (US)
Launch site: AIR FORCE WESTERN TEST RANGE (AFWTR)

Note: This is SATELLITE DEBRIS
aabbcc
Your satellite tracking list
Your tracking list is empty




NASA's NSSDC Master Catalog

Two Line Element Set (TLE):
1 40492U 95015CF  22180.35988349  .00001596  00000-0  68457-3 0  9995
2 40492  98.6953 205.1883 0028773 247.8139 111.9987 14.25996280378964
Source of the keplerian elements: AFSPC